Location: Jetmore
(38.0845°N, 99.8935°W)
Time: 20:52:39
(UTC+00:00)

Nauka - Pass Details

Date: 18 September 2021
Orbit: 418 x 423 km, 51.6° (Epoch: 14 October)

Event Time Altitude Azimuth Distance (km) Brightness Sun altitude
Rises 01:38:17 0° 233° (SW) 2,347 ? -11.5°
Reaches altitude 10° 01:40:22 10° 234° (SW) 1,488 ? -11.9°
Maximum altitude 01:43:43 77° 321° (NW) 432 ? -12.5°
Enters shadow 01:47:03 10° 48° (NE) 1,491 ? -13.1°
